Location: *
(49.0044°N, 9.5056°E)
Time: 02:20:13
(UTC+00:00)

Cosmos 2333 Rocket - Pass Details

Date: 22 September 2019
Orbit: 840 x 862 km, 70.8° (Epoch: 22 October)

Event Time Altitude Azimuth Distance (km) Brightness Sun altitude
Rises 18:42:34 0° 322° (NW) 3,426 6.3 -14.0°
Reaches altitude 10° 18:45:25 10° 310° (NW) 2,489 5.8 -14.5°
Maximum altitude 18:49:57 25° 257° (WSW) 1,662 4.4 -15.2°
Drops below altitude 10° 18:54:30 10° 204° (SSW) 2,486 4.7 -15.9°
Sets 18:57:21 0° 192° (SSW) 3,421 5.3 -16.3°
